GFTC LEAL-LEAL

Flight info

Callsign GFTC
Flight time 0h 10m
Altitude 43000
Route ASTRO L150 CJN/N0430F140 N733 VLC
Aircraft C750/M-SBDE3FGHRWXY/S

Departure

Time 2026-04-29 14:32
Airport Alicante-Elche Miguel Hernández Airport (LEAL)

Arrival

Time 2026-04-29 14:42
Airport Alicante-Elche Miguel Hernández Airport (LEAL)
Time Latitude Longitude Altitude Speed Heading
2026-04-29 14:23 39.36168 -0.54279 24114 ft 459 kts 179°
2026-04-29 14:23 39.33017 -0.54416 22807 ft 448 kts 185°
2026-04-29 14:24 39.29975 -0.55003 21516 ft 437 kts 192°
2026-04-29 14:24 39.27074 -0.55970 20242 ft 426 kts 196°
2026-04-29 14:24 39.24248 -0.56989 18992 ft 417 kts 195°
2026-04-29 14:24 39.21480 -0.57955 17772 ft 407 kts 195°
2026-04-29 14:25 39.18773 -0.58904 16564 ft 399 kts 195°
2026-04-29 14:25 39.16126 -0.59850 15378 ft 390 kts 195°
2026-04-29 14:25 39.13536 -0.60774 14215 ft 382 kts 195°
2026-04-29 14:25 39.10996 -0.61671 13075 ft 375 kts 195°
2026-04-29 14:26 39.08507 -0.62547 12083 ft 366 kts 195°
2026-04-29 14:26 39.06141 -0.63384 11727 ft 340 kts 195°
2026-04-29 14:26 39.03952 -0.64158 11592 ft 312 kts 195°
2026-04-29 14:26 39.01942 -0.64868 11115 ft 300 kts 195°
2026-04-29 14:27 38.99901 -0.65587 10360 ft 299 kts 195°
2026-04-29 14:27 38.97933 -0.66281 9710 ft 295 kts 195°
2026-04-29 14:27 38.95964 -0.66974 9042 ft 292 kts 195°
2026-04-29 14:28 38.92091 -0.68338 7738 ft 285 kts 195°
2026-04-29 14:28 38.90194 -0.69005 7102 ft 282 kts 195°
2026-04-29 14:28 38.88310 -0.69668 6448 ft 275 kts 195°
2026-04-29 14:28 38.86468 -0.70315 5496 ft 277 kts 195°
2026-04-29 14:29 38.84621 -0.70964 4965 ft 271 kts 195°
2026-04-29 14:29 38.82815 -0.71596 4362 ft 269 kts 195°
2026-04-29 14:29 38.81020 -0.72225 4137 ft 262 kts 195°
2026-04-29 14:29 38.79214 -0.72860 4484 ft 273 kts 195°
2026-04-29 14:30 38.77413 -0.73493 5606 ft 268 kts 195°
2026-04-29 14:30 38.75593 -0.74130 6311 ft 275 kts 195°
2026-04-29 14:30 38.73734 -0.74779 7100 ft 278 kts 195°
2026-04-29 14:30 38.71855 -0.75437 7894 ft 284 kts 195°
2026-04-29 14:31 38.69915 -0.76116 8059 ft 290 kts 195°
2026-04-29 14:31 38.67945 -0.76804 8048 ft 288 kts 195°
2026-04-29 14:31 38.66050 -0.77465 8050 ft 287 kts 195°
2026-04-29 14:31 38.64151 -0.78128 8050 ft 286 kts 195°
2026-04-29 14:32 38.62227 -0.78799 8050 ft 287 kts 195°
2026-04-29 14:32 38.60305 -0.79469 8050 ft 286 kts 195°
2026-04-29 14:32 38.58382 -0.80140 8056 ft 286 kts 195°
2026-04-29 14:32 38.56455 -0.80811 8057 ft 286 kts 195°
2026-04-29 14:33 38.54616 -0.81451 8030 ft 263 kts 195°
2026-04-29 14:33 38.52881 -0.81915 7633 ft 255 kts 189°
2026-04-29 14:33 38.51152 -0.82294 7281 ft 249 kts 190°
2026-04-29 14:33 38.49457 -0.82687 6820 ft 247 kts 191°
2026-04-29 14:34 38.47782 -0.83068 6291 ft 241 kts 190°
2026-04-29 14:34 38.46104 -0.83442 5808 ft 244 kts 190°
2026-04-29 14:34 38.44458 -0.83810 5740 ft 240 kts 190°
2026-04-29 14:34 38.42806 -0.84181 5567 ft 242 kts 190°
2026-04-29 14:35 38.41143 -0.84554 5348 ft 242 kts 190°
2026-04-29 14:35 38.39538 -0.84913 5127 ft 226 kts 190°
2026-04-29 14:35 38.38004 -0.85256 4900 ft 222 kts 190°
2026-04-29 14:35 38.36522 -0.85588 4691 ft 209 kts 190°
2026-04-29 14:36 38.35143 -0.85896 4509 ft 194 kts 190°
2026-04-29 14:36 38.33824 -0.85889 4297 ft 191 kts 165°
2026-04-29 14:36 38.32696 -0.85029 4142 ft 192 kts 136°
2026-04-29 14:36 38.32094 -0.83519 3966 ft 194 kts 104°
2026-04-29 14:37 38.31853 -0.81846 3895 ft 188 kts 100°
2026-04-29 14:37 38.31627 -0.80259 3682 ft 177 kts 101°
2026-04-29 14:37 38.31417 -0.78765 3444 ft 171 kts 101°
2026-04-29 14:37 38.31214 -0.77306 3211 ft 162 kts 101°
2026-04-29 14:38 38.31016 -0.75879 3000 ft 167 kts 101°
2026-04-29 14:38 38.30812 -0.74420 2784 ft 168 kts 101°
2026-04-29 14:38 38.30606 -0.72946 2559 ft 169 kts 101°
2026-04-29 14:38 38.30402 -0.71476 2340 ft 169 kts 101°
2026-04-29 14:39 38.30198 -0.70007 2113 ft 168 kts 101°
2026-04-29 14:39 38.29994 -0.68542 1893 ft 167 kts 101°
2026-04-29 14:39 38.29806 -0.67186 1670 ft 145 kts 101°
2026-04-29 14:39 38.29637 -0.65973 1485 ft 136 kts 101°
2026-04-29 14:40 38.29472 -0.64794 1312 ft 135 kts 101°
2026-04-29 14:40 38.29307 -0.63619 1137 ft 135 kts 101°
2026-04-29 14:40 38.29143 -0.62439 938 ft 136 kts 101°
2026-04-29 14:40 38.28980 -0.61255 722 ft 135 kts 101°
2026-04-29 14:41 38.28813 -0.60084 542 ft 133 kts 101°
2026-04-29 14:41 38.28656 -0.58933 408 ft 133 kts 101°
2026-04-29 14:41 38.28498 -0.57774 259 ft 133 kts 101°
2026-04-29 14:41 38.28340 -0.56632 122 ft 123 kts 101°
2026-04-29 14:42 38.28206 -0.55720 98 ft 81 kts 101°
2026-04-29 14:42 38.28124 -0.55119 78 ft 51 kts 91°
2026-04-29 14:42 38.28178 -0.54776 67 ft 24 kts 70°
2026-04-29 14:42 38.28203 -0.54725 65 ft 2 kts 19°
2026-04-29 14:43 38.28225 -0.54718 65 ft 4 kts
2026-04-29 14:43 38.28245 -0.54740 66 ft 5 kts 292°
2026-04-29 14:43 38.28251 -0.54787 67 ft 6 kts 279°
2026-04-29 14:43 38.28259 -0.54847 70 ft 8 kts 279°
2026-04-29 14:44 38.28269 -0.54923 72 ft 10 kts 279°
2026-04-29 14:44 38.28282 -0.55014 75 ft 11 kts 281°
2026-04-29 14:44 38.28298 -0.55117 79 ft 13 kts 281°
2026-04-29 14:44 38.28315 -0.55234 84 ft 14 kts 279°
2026-04-29 14:45 38.28333 -0.55367 88 ft 16 kts 278°
2026-04-29 14:45 38.28354 -0.55518 92 ft 18 kts 280°
2026-04-29 14:45 38.28377 -0.55686 97 ft 16 kts 279°
2026-04-29 14:45 38.28394 -0.55813 100 ft 12 kts 279°
2026-04-29 14:46 38.28406 -0.55902 102 ft 11 kts 279°
2026-04-29 14:46 38.28417 -0.55978 104 ft 1 kts 311°
2026-04-29 14:46 38.28428 -0.55979 103 ft 5 kts 356°
2026-04-29 14:46 38.28478 -0.55968 99 ft 8 kts 13°
2026-04-29 14:47 38.28482 -0.55956 99 ft 3 kts 84°
2026-04-29 14:47 38.28481 -0.55937 99 ft 0 kts 82°
2026-04-29 14:48 38.28484 -0.55930 98 ft 0 kts 65°
2026-04-29 14:48 38.28485 -0.55928 98 ft 0 kts 65°